Location: Huisseau
(47.5933°N, 1.4533°E)
Time: 18:36:16
(UTC+00:00)

CENTAUR R/B - Pass Details

Date: 27 November 2025
Orbit: 633 x 1547 km, 63.4° (Epoch: 06 December)

Event Time Altitude Azimuth Distance (km) Brightness Sun altitude
Rises 20:29:47 0° 262° (W) 3,411 6.0 -43.5°
Reaches altitude 10° 20:32:19 10° 273° (W) 2,601 5.3 -43.9°
Enters shadow 20:34:43 22° 291° (WNW) 1,994 4.5 -44.3°
